Torna al catalogo

COSMOS 1285 DEB

AttivoHEO
NORAD 26680·DEBRIS·🇷🇺 Russia

Lanciato Aug 4, 1981 da Plesetsk Cosmodrome

Loading…

Prossimi Passaggi (prossime 24 ore)

TLE

AggiornatoSource: Space-Track

Epoca: Sep 14, 2026, 13:35 UTC

1 26680U 81071L   26257.56612141 -.00000801  00000-0  12311-2 0  9997
2 26680  62.7570 352.6802 7434890  46.2070 354.8460  1.98413970209778

Traccia COSMOS 1285 DEB in tempo reale con AllMySat

Download on the App Store